カタログに戻る

STARLINK-34455

運用中通信VLEO
NORAD 65497·PAYLOAD·🇺🇸 United States

打ち上げ Sep 5, 2025 から Cape Canaveral Space Force Station

Loading…

次のパス (今後24時間)

TLE

最新Source: CelesTrak SupGP

元期: Sep 14, 2026, 20:50 UTC

1 65497C 25198F   26257.86854167 -.00031531  00000+0 -93182-3 0  2570
2 65497  53.1572 108.0442 0001232  86.9907 286.2514 15.34399265    18

AllMySatでSTARLINK-34455をリアルタイム追跡

Download on the App Store